Juan de Fuca Strait - central strait: Past 24 Hour Conditions

 

Esquimalt Harbour

10:00 AM PDT 19 April 2014
This table is a summary of hourly weather conditions for the past 24 hours.
Date / Time
(PDT)
Wind(knots) Conditions Visibility(km) Pressure(kPa) Air tempC) Relative humidity(%) Dew pointC)
19 April 2014
10:00 WNW 2 N/A N/A 100.8 9 66 3
9:00 NNW 5 N/A N/A 100.8 8 73 4
8:00 N 6 N/A N/A 100.8 8 77 5
7:00 N 10 gust 15 N/A N/A 100.8 8 74 4
6:00 N 7 N/A N/A 100.9 8 77 4
5:00 N 9 N/A N/A 100.9 8 79 5
4:00 NNW 7 N/A N/A 101.0 8 76 4
3:00 N 5 N/A N/A 101.0 8 77 4
2:00 NW 6 N/A N/A 101.1 8 76 4
1:00 N 6 N/A N/A 101.2 8 75 4
0:00 NNW 7 N/A N/A 101.3 8 78 5
18 April 2014
23:00 NNW 5 N/A N/A 101.4 8 76 4
22:00 NNW 6 N/A N/A 101.5 8 78 5
21:00 NW 4 N/A N/A 101.5 9 76 5
20:00 N 2 N/A N/A 101.6 10 71 5
19:00 SSE 5 N/A N/A 101.7 9 81 6
18:00 SSE 10 N/A N/A 101.8 10 79 6
17:00 SSE 14 N/A N/A 101.8 10 77 6
16:00 SSE 14 N/A N/A 101.8 9 77 6
15:00 S 12 N/A N/A 101.8 11 58 3
14:00 SSW 14 N/A N/A 101.9 11 56 3
13:00 SSW 14 N/A N/A 101.9 11 59 3
12:00 SSW 15 N/A N/A 101.9 10 63 3
11:00 SSW 18 gust 23 N/A N/A 101.9 10 67 4
10:00 SSW 18 N/A N/A 101.8 9 70 4
 
Map of Pacific - Georgia Basin marine weather areas Tsawwassen Ferry Terminal Sentry Shoal - 46131 Halibut Bank - 46146 La Perouse Bank - 46206 Discovery Island Esquimalt Harbour Kelp Reefs Malahat Race Rocks Lightstation Saturna Island Sheringham Point University of Victoria Victoria Gonzales Victoria Int'l Airport Ballenas Islands Campbell River Airport Comox Airport Entrance Island Fanny Island Nanaimo Airport Sisters Islets Estevan Point Tofino Airport Grief Point Powell River Airport Sechelt Point Atkinson Sand Heads Lightstation Vancouver Harbour Vancouver Int'l Airport West Vancouver Port Alberni Howe Sound - Pam Rocks Squamish Airport